Location: Cronhütte
(48.9135°N, 9.6869°E)
Time: 20:29:31
(UTC+00:00)

Genesis I - Pass Details

Date: 19 August 2024
Orbit: 412 x 456 km, 64.5° (Epoch: 12 September)

Event Time Altitude Azimuth Distance (km) Brightness Sun altitude
Exits shadow 00:51:58 36° 19° (NNE) 728 4.4 -25.5°
Drops below altitude 10° 00:54:16 10° 34° (NE) 1,593 6.7 -25.3°
Sets 00:56:26 0° 38° (NE) 2,481 7.9 -25.2°
